Location: Blairvadach
(56.2780°N, 6.9720°W)
Time: 23:10:47
(UTC+01:00)

Envisat - Pass Details

Date: 22 February 2019
Orbit: 764 x 766 km, 98.1° (Epoch: 15 October)

Event Time Altitude Azimuth Distance (km) Brightness Sun altitude
Rises 19:19:51 0° 178° (S) 3,222 6.2 -13.7°
Reaches altitude 10° 19:22:12 10° 184° (S) 2,300 5.5 -14.0°
Maximum altitude 19:27:09 52° 260° (W) 952 3.9 -14.7°
Drops below altitude 10° 19:32:08 10° 337° (NNW) 2,316 5.8 -15.4°
Sets 19:34:31 0° 343° (NNW) 3,247 6.6 -15.7°
